Flag for Cambodia Weather past 2 weeks in Battambang, Cambodia

Now
88 °F

Scattered clouds.


Feels Like: 96 °F
Forecast: 77 / 93 °F
Wind: 6 mph from West

Location: Siemreap

Current Time: Aug 21, 2014 at 1:22:45 PM

Latest Report: Aug 21, 2014 at 12:30 PM


Visibility: N/A

Pressure: 29.77 "Hg

Humidity: 62%

Dew point: 73 °F

Location of BattambangLocation

Historic Weather in Battambang — Graph

°F

Battambang temperature yesterday

Maximum temperature yesterday: 90 °F (at 11:30 AM)
Minimum temperature yesterday: 79 °F (at 6:30 PM)
Average temperature yesterday: 85 °F

Past Weeks' High & Low Weather Summary

 TemperatureHumidityPressure
High93 °F (Aug 10, 1:30 PM)89% (Aug 8, 7:30 PM)29.86 "Hg (Aug 8, 7:30 PM)
Low79 °F (Aug 7, 11:00 PM)47% (Aug 10, 2:30 PM)29.62 "Hg (Aug 12, 3:00 PM)
Average85 °F70%29.75 "Hg
* Reported Aug 6 12:00 Noon — Aug 21 12:00 Noon, Battambang, Weather by CustomWeather, © 2014

Note: Actual official high and low records may vary slightly from our data, if they occured in-between our weather recording intervals... More about our weather records

Advertising

Battambang weather history for previous 24 hours

 ConditionsComfort  
Time TempWeatherWind HumidityBarometerVisibility
12:00 PM
Aug 21
88 °FScattered clouds.6 mph62%29.77 "HgN/A
11:30 AM90 °FScattered clouds.6 mph59%29.77 "HgN/A
11:00 AM90 °FScattered clouds.6 mph63%29.80 "HgN/A
10:30 AM88 °FScattered clouds.8 mph66%29.80 "HgN/A
10:00 AM86 °FScattered clouds.6 mph70%29.80 "HgN/A
9:30 AM86 °FScattered clouds.5 mph70%29.80 "HgN/A
9:00 AM86 °FScattered clouds.5 mph70%29.80 "HgN/A
8:30 AM84 °FScattered clouds.5 mph79%29.80 "HgN/A
8:00 AM84 °FSunny.3 mph79%29.80 "Hg10 mi
7:30 AM84 °FSunny.No wind74%29.77 "Hg10 mi
7:00 AM81 °FSunny.5 mph84%29.77 "Hg10 mi
1:00 AM81 °FPassing clouds.5 mph84%29.77 "Hg6 mi
12:30 AM81 °FPassing clouds.5 mph84%29.77 "Hg6 mi
12:00 AM81 °FPassing clouds.5 mph84%29.80 "Hg6 mi
11:30 PM
Aug 20
81 °FPassing clouds.5 mph84%29.80 "Hg6 mi
11:00 PM81 °FPassing clouds.5 mph84%29.80 "Hg6 mi
10:30 PM81 °FPassing clouds.5 mph84%29.80 "Hg6 mi
10:00 PM81 °FPassing clouds.5 mph84%29.80 "Hg6 mi
9:30 PM82 °FPassing clouds.5 mph79%29.80 "Hg6 mi
9:00 PM81 °FPassing clouds.No wind84%29.80 "Hg6 mi
8:30 PM81 °FPassing clouds.5 mph84%29.80 "Hg6 mi
8:00 PM81 °FPartly cloudy.5 mph79%29.77 "Hg6 mi
7:30 PM81 °FPartly cloudy.5 mph84%29.77 "Hg6 mi
7:00 PM81 °FPartly cloudy.5 mph79%29.77 "Hg6 mi
6:30 PM79 °FPartly cloudy.9 mph84%29.74 "Hg6 mi
6:00 PM82 °FScattered clouds.6 mph74%29.74 "HgN/A
5:30 PM84 °FScattered clouds.6 mph74%29.71 "HgN/A
5:00 PM86 °FScattered clouds.5 mph70%29.71 "HgN/A
4:30 PM88 °FScattered clouds.5 mph62%29.71 "HgN/A
4:00 PM88 °FScattered clouds.3 mph62%29.71 "HgN/A
3:30 PM90 °FScattered clouds.5 mph59%29.68 "HgN/A
3:00 PM90 °FScattered clouds.3 mph59%29.68 "HgN/A
2:30 PM90 °FScattered clouds.1 mph59%29.71 "HgN/A
2:00 PM90 °FScattered clouds.3 mph63%29.71 "HgN/A
1:30 PM90 °FScattered clouds.5 mph59%29.74 "HgN/A
1:00 PM90 °FScattered clouds.6 mph63%29.74 "HgN/A
Weather by CustomWeather, © 2014

See weather overviewHow to use our weather pages